Estación de Tamelaike INIA
Ultimos registro cada 15 minutos 35
| N° | Estación | Fecha / Hora | Temperatura | Humedad | Lluvia | Velocidad | Dirección | Radiación | Presion |
| 35 | Tamelaike INIA | 05-05-2026 08:30 | 4,9 | 84 | 0 | 2,6 | 252 | 39 | 995 |
| 34 | Tamelaike INIA | 05-05-2026 08:15 | 4,8 | 84,7 | 0 | 4,3 | 276 | 15 | 995 |
| 33 | Tamelaike INIA | 05-05-2026 08:00 | 4,6 | 87,9 | 0 | 2,2 | 275 | 6 | 995 |
| 32 | Tamelaike INIA | 05-05-2026 07:45 | 5 | 86,1 | 0 | 4,6 | 275 | 1 | 995 |
| 31 | Tamelaike INIA | 05-05-2026 07:30 | 4,8 | 82,3 | 0 | 5,8 | 277 | 0 | 995 |
| 30 | Tamelaike INIA | 05-05-2026 07:15 | 4,5 | 88,3 | 0 | 4,3 | 267 | 0 | 994 |
| 29 | Tamelaike INIA | 05-05-2026 07:00 | 4,9 | 86,2 | 0 | 4,8 | 275 | 0 | 994 |
| 28 | Tamelaike INIA | 05-05-2026 06:45 | 5 | 85,8 | 0 | 4,2 | 280 | 0 | 1013 |
| 27 | Tamelaike INIA | 05-05-2026 06:30 | 5,2 | 83,6 | 0 | 4,5 | 280 | 0 | 994 |
| 26 | Tamelaike INIA | 05-05-2026 06:15 | 5,1 | 83,1 | 0 | 4,7 | 285 | 0 | 1013 |
| 25 | Tamelaike INIA | 05-05-2026 06:00 | 5,1 | 83,5 | 0 | 4,1 | 285 | 0 | 994 |
| 24 | Tamelaike INIA | 05-05-2026 05:45 | 5,2 | 83,1 | 0 | 3,7 | 283 | 0 | 993 |
| 23 | Tamelaike INIA | 05-05-2026 05:30 | 5,3 | 80,9 | 0 | 5,1 | 275 | 0 | 994 |
| 22 | Tamelaike INIA | 05-05-2026 05:15 | 5,3 | 81,6 | 0 | 5,2 | 279 | 0 | 993 |
| 21 | Tamelaike INIA | 05-05-2026 05:00 | 5 | 81,2 | 0 | 4,9 | 282 | 0 | 993 |
| 20 | Tamelaike INIA | 05-05-2026 04:45 | 4,7 | 84,6 | 0 | 3,6 | 282 | 0 | 993 |
| 19 | Tamelaike INIA | 05-05-2026 04:30 | 4,5 | 87,7 | 0 | 3,4 | 280 | 0 | 993 |
| 18 | Tamelaike INIA | 05-05-2026 04:15 | 4,4 | 88,5 | 0 | 4 | 276 | 0 | 993 |
| 17 | Tamelaike INIA | 05-05-2026 04:00 | 4,5 | 88,1 | 0 | 4,8 | 273 | 0 | 992 |
| 16 | Tamelaike INIA | 05-05-2026 03:45 | 4,7 | 88,4 | 0 | 5,6 | 273 | 0 | 992 |
| 15 | Tamelaike INIA | 05-05-2026 03:30 | 5 | 87,3 | 0 | 6,8 | 275 | 0 | 992 |
| 14 | Tamelaike INIA | 05-05-2026 03:15 | 5,1 | 86,4 | 0 | 7,6 | 276 | 0 | 991 |
| 13 | Tamelaike INIA | 05-05-2026 03:00 | 5,1 | 85 | 0 | 7,7 | 278 | 0 | 1011 |
| 12 | Tamelaike INIA | 05-05-2026 02:45 | 5,1 | 84,4 | 0 | 5,5 | 276 | 0 | 992 |
| 11 | Tamelaike INIA | 05-05-2026 02:30 | 5,2 | 83,9 | 0 | 6 | 266 | 0 | 1010 |
| 10 | Tamelaike INIA | 05-05-2026 02:15 | 5,2 | 83,4 | 0 | 5,8 | 263 | 0 | 992 |
| 9 | Tamelaike INIA | 05-05-2026 02:00 | 5,2 | 85,4 | 0 | 6,8 | 268 | 0 | 1009 |
| 8 | Tamelaike INIA | 05-05-2026 01:45 | 5,5 | 84,4 | 0 | 7,5 | 266 | 0 | 994 |
| 7 | Tamelaike INIA | 05-05-2026 01:30 | 5,4 | 82,6 | 0 | 7,7 | 264 | 0 | 991 |
| 6 | Tamelaike INIA | 05-05-2026 01:15 | 5,4 | 86 | 0 | 7 | 263 | 0 | 990 |
| 5 | Tamelaike INIA | 05-05-2026 01:00 | 5,5 | 85,1 | 0 | 8,1 | 257 | 0 | 991 |
| 4 | Tamelaike INIA | 05-05-2026 00:45 | 5,6 | 84,8 | 0 | 8,6 | 263 | 0 | 991 |
| 3 | Tamelaike INIA | 05-05-2026 00:30 | 5,6 | 84,6 | 0 | 8,9 | 269 | 0 | 990 |
| 2 | Tamelaike INIA | 05-05-2026 00:15 | 5,8 | 82,1 | 0 | 9,5 | 264 | 0 | 990 |
| 1 | Tamelaike INIA | 05-05-2026 00:00 | 5,7 | 82,7 | 0 | 8 | 267 | 0 | 1009 |